User: anonymous   Login
Location: Antichan
(42.9728°N, 0.6667°E)
Time: 09:39:52
(UTC+00:00)
Language:

Meteor 1-27 Rocket - Orbit

View from above orbital plane
View from above orbital plane
View from above satellite
View from above satellite

Ground track
Ground track

The orbit data is extracted from the following two-line orbital elements,

1  9904U 77024B   20293.37392817 +.00000081 +00000-0 +40131-4 0  9990
2  9904 081.2657 030.7748 0054903 131.2459 229.3461 14.06894799234371
Epoch (UTC): 19 October 2020 08:58:27
Eccentricity: 0.0054903
inclination: 81.2657°
perigee height: 830 km
apogee height: 910 km
right ascension of ascending node: 30.7748°
argument of perigee: 131.2459°
revolutions per day: 14.06894799
mean anomaly at epoch: 229.3461°
orbit number at epoch: 23437

The dashed part of the orbit path shows where the satellite is in the earth's shadow,  

DLR